• In Czech Republic
  • List of Countries
  • For 7 days
  • Water Temperature
  • Satellite Maps
  • Weather Map
  • Weather Widgets
  • user-avatar
    Login

    Hourly Weather London

    Today, 13 December, Wednesday

    Time Temperature Precipitation Wind Pressure Humidity
    00:00 +4°C° 0 mm 6 mps 752 mmHg 92%
    01:00 +4°C° 0.7 mm 6 mps 751 mmHg 93%
    02:00 +5°C° 0.7 mm 7 mps 750 mmHg 93%
    03:00 +5°C° 0.7 mm 7 mps 749 mmHg 94%
    04:00 +5°C° 0 mm 6 mps 749 mmHg 94%
    05:00 +5°C° 0 mm 5 mps 749 mmHg 94%
    06:00 +5°C° 0 mm 5 mps 749 mmHg 94%
    07:00 +5°C° 0.2 mm 5 mps 749 mmHg 93%
    08:00 +5°C° 0.2 mm 5 mps 748 mmHg 91%
    09:00 +3°C° 0.2 mm 5 mps 748 mmHg 90%
    10:00 +4°C° 0.1 mm 6 mps 747 mmHg 89%
    11:00 +5°C° 0.1 mm 6 mps 747 mmHg 87%
    12:00 +6°C° 0.1 mm 7 mps 746 mmHg 85%
    13:00 +6°C° 0.8 mm 8 mps 745 mmHg 86%
    14:00 +6°C° 0.8 mm 8 mps 744 mmHg 86%
    15:00 +7°C° 0.8 mm 9 mps 743 mmHg 86%
    16:00 +5°C° 0.4 mm 8 mps 743 mmHg 81%
    17:00 +4°C° 0.4 mm 8 mps 743 mmHg 76%
    18:00 +3°C° 0.4 mm 7 mps 743 mmHg 72%
    19:00 +3°C° 0.5 mm 7 mps 743 mmHg 74%
    20:00 +2°C° 0.5 mm 8 mps 742 mmHg 76%
    21:00 +2°C° 0.5 mm 8 mps 742 mmHg 78%
    22:00 +1°C° 0.2 mm 8 mps 743 mmHg 74%
    23:00 0°C° 0.2 mm 9 mps 743 mmHg 71%

    Tomorrow, 14 December, Thursday

    Time Temperature Precipitation Wind Pressure Humidity
    00:00 0°C° 0.2 mm 9 mps 744 mmHg 67%
    01:00 0°C° 0 mm 9 mps 744 mmHg 68%
    02:00 0°C° 0 mm 8 mps 745 mmHg 69%
    03:00 0°C° 0 mm 8 mps 746 mmHg 71%
    04:00 0°C° 0 mm 8 mps 746 mmHg 71%
    05:00 0°C° 0 mm 8 mps 745 mmHg 71%
    06:00 +2°C° 0 mm 7 mps 745 mmHg 71%
    07:00 +2°C° 0 mm 7 mps 745 mmHg 71%
    08:00 +2°C° 0 mm 7 mps 745 mmHg 72%
    09:00 +2°C° 0 mm 7 mps 744 mmHg 73%
    10:00 +2°C° 0 mm 7 mps 744 mmHg 71%
    11:00 +3°C° 0 mm 7 mps 744 mmHg 70%
    12:00 +3°C° 0 mm 6 mps 743 mmHg 69%
    13:00 +3°C° 0 mm 6 mps 743 mmHg 69%
    14:00 +3°C° 0 mm 5 mps 743 mmHg 70%
    15:00 +2°C° 0 mm 5 mps 742 mmHg 70%
    16:00 +2°C° 0 mm 5 mps 742 mmHg 72%
    17:00 +1°C° 0 mm 5 mps 742 mmHg 73%
    18:00 +1°C° 0 mm 4 mps 742 mmHg 75%
    19:00 +1°C° 0 mm 5 mps 741 mmHg 75%
    20:00 +1°C° 0 mm 5 mps 741 mmHg 74%
    21:00 +2°C° 0 mm 6 mps 741 mmHg 74%
    22:00 +2°C° 0.1 mm 6 mps 741 mmHg 77%
    23:00 +2°C° 0.1 mm 6 mps 740 mmHg 79%

    Day after tomorrow, 15 December, Friday

    Time Temperature Precipitation Wind Pressure Humidity
    00:00 +2°C° 0.1 mm 6 mps 740 mmHg 82%
    01:00 +2°C° 0 mm 6 mps 740 mmHg 84%
    02:00 +1°C° 0 mm 5 mps 741 mmHg 86%
    03:00 +1°C° 0 mm 5 mps 741 mmHg 88%
    04:00 +1°C° 0 mm 4 mps 741 mmHg 89%
    05:00 0°C° 0 mm 4 mps 742 mmHg 90%
    06:00 +1°C° 0 mm 3 mps 742 mmHg 91%
    07:00 0°C° 0 mm 4 mps 744 mmHg 91%
    08:00 0°C° 0 mm 4 mps 745 mmHg 91%
    09:00 0°C° 0 mm 5 mps 746 mmHg 90%
    10:00 +1°C° 0 mm 5 mps 747 mmHg 87%
    11:00 +1°C° 0 mm 5 mps 748 mmHg 85%
    12:00 +2°C° 0 mm 6 mps 749 mmHg 82%
    13:00 +2°C° 0 mm 6 mps 750 mmHg 83%
    14:00 +2°C° 0 mm 6 mps 750 mmHg 83%
    15:00 +2°C° 0 mm 5 mps 751 mmHg 84%
    16:00 +1°C° 0 mm 5 mps 752 mmHg 85%
    17:00 +1°C° 0 mm 5 mps 752 mmHg 85%
    18:00 0°C° 0 mm 5 mps 753 mmHg 86%
    19:00 0°C° 0 mm 5 mps 754 mmHg 84%
    20:00 0°C° 0 mm 5 mps 754 mmHg 83%
    21:00 -1°C° 0 mm 4 mps 755 mmHg 82%
    22:00 -1°C° 0 mm 4 mps 755 mmHg 81%
    23:00 -1°C° 0 mm 4 mps 756 mmHg 80%

    16 December, Saturday

    Time Temperature Precipitation Wind Pressure Humidity
    00:00 -1°C° 0 mm 4 mps 756 mmHg 79%
    01:00 -1°C° 0 mm 4 mps 756 mmHg 79%
    02:00 -1°C° 0 mm 4 mps 757 mmHg 79%
    03:00 -1°C° 0 mm 4 mps 757 mmHg 80%
    04:00 -2°C° 0 mm 4 mps 757 mmHg 80%
    05:00 -2°C° 0 mm 4 mps 758 mmHg 81%
    06:00 -2°C° 0 mm 4 mps 758 mmHg 81%
    07:00 -2°C° 0 mm 4 mps 759 mmHg 80%
    08:00 -1°C° 0 mm 4 mps 759 mmHg 79%
    09:00 -1°C° 0 mm 4 mps 760 mmHg 78%
    10:00 0°C° 0 mm 5 mps 760 mmHg 74%
    11:00 0°C° 0 mm 5 mps 761 mmHg 69%
    12:00 +1°C° 0 mm 5 mps 761 mmHg 65%
    13:00 +1°C° 0 mm 5 mps 762 mmHg 66%
    14:00 +1°C° 0 mm 4 mps 762 mmHg 68%
    15:00 +1°C° 0 mm 4 mps 763 mmHg 70%
    16:00 0°C° 0 mm 4 mps 763 mmHg 73%
    17:00 +1°C° 0 mm 3 mps 764 mmHg 76%
    18:00 0°C° 0 mm 3 mps 765 mmHg 79%
    19:00 0°C° 0 mm 3 mps 765 mmHg 80%
    20:00 0°C° 0 mm 3 mps 766 mmHg 81%
    21:00 0°C° 0 mm 3 mps 766 mmHg 83%
    22:00 +1°C° 0.1 mm 3 mps 766 mmHg 83%
    23:00 +1°C° 0.1 mm 3 mps 766 mmHg 83%

    17 December, Sunday

    Time Temperature Precipitation Wind Pressure Humidity
    00:00 +1°C° 0.1 mm 3 mps 767 mmHg 84%
    01:00 +1°C° 0 mm 3 mps 767 mmHg 85%
    02:00 +1°C° 0 mm 3 mps 767 mmHg 86%
    03:00 +1°C° 0 mm 3 mps 767 mmHg 87%
    04:00 +1°C° 0 mm 3 mps 767 mmHg 89%
    05:00 0°C° 0 mm 3 mps 767 mmHg 91%
    06:00 +1°C° 0 mm 2 mps 767 mmHg 93%
    07:00 +2°C° 0 mm 2 mps 768 mmHg 94%
    08:00 +2°C° 0 mm 2 mps 768 mmHg 94%
    09:00 +2°C° 0 mm 2 mps 768 mmHg 94%
    10:00 +3°C° 0 mm 2 mps 768 mmHg 92%
    11:00 +4°C° 0 mm 2 mps 768 mmHg 89%
    12:00 +4°C° 0 mm 3 mps 769 mmHg 86%
    13:00 +4°C° 0 mm 3 mps 768 mmHg 88%
    14:00 +4°C° 0 mm 3 mps 768 mmHg 89%
    15:00 +4°C° 0 mm 3 mps 768 mmHg 91%
    16:00 +4°C° 0 mm 3 mps 768 mmHg 92%
    17:00 +4°C° 0 mm 3 mps 768 mmHg 92%
    18:00 +3°C° 0 mm 4 mps 768 mmHg 93%
    19:00 +4°C° 0 mm 4 mps 768 mmHg 92%
    20:00 +4°C° 0 mm 4 mps 767 mmHg 91%
    21:00 +5°C° 0 mm 5 mps 767 mmHg 90%
    22:00 +4°C° 0.3 mm 6 mps 767 mmHg 90%
    23:00 +5°C° 0.3 mm 6 mps 766 mmHg 91%

    18 December, Monday

    Time Temperature Precipitation Wind Pressure Humidity
    00:00 +6°C° 0.3 mm 7 mps 765 mmHg 91%
    01:00 +6°C° 0.1 mm 7 mps 765 mmHg 91%
    02:00 +8°C° 0.1 mm 7 mps 765 mmHg 92%
    03:00 +8°C° 0.1 mm 6 mps 765 mmHg 92%
    04:00 +8°C° 0.1 mm 6 mps 765 mmHg 92%
    05:00 +8°C° 0.1 mm 6 mps 765 mmHg 93%
    06:00 +8°C° 0.1 mm 5 mps 765 mmHg 94%
    07:00 +8°C° 0 mm 5 mps 766 mmHg 93%
    08:00 +7°C° 0 mm 4 mps 766 mmHg 93%
    09:00 +7°C° 0 mm 4 mps 767 mmHg 93%
    10:00 +7°C° 0 mm 4 mps 767 mmHg 90%
    11:00 +7°C° 0 mm 4 mps 768 mmHg 87%
    12:00 +7°C° 0 mm 4 mps 768 mmHg 84%
    13:00 +7°C° 0 mm 4 mps 769 mmHg 85%
    14:00 +8°C° 0 mm 3 mps 769 mmHg 86%
    15:00 +7°C° 0 mm 3 mps 769 mmHg 87%
    16:00 +5°C° 0 mm 3 mps 769 mmHg 89%
    17:00 +6°C° 0 mm 2 mps 770 mmHg 90%
    18:00 +5°C° 0 mm 2 mps 770 mmHg 91%
    19:00 +5°C° 0 mm 2 mps 771 mmHg 91%
    20:00 +4°C° 0 mm 2 mps 771 mmHg 91%
    21:00 +5°C° 0 mm 1 mps 772 mmHg 91%
    22:00 +5°C° 0 mm 1 mps 772 mmHg 91%
    23:00 +5°C° 0 mm 1 mps 772 mmHg 91%
    Show more